This demonstration page uses our WeatherBlox Daily Observations layout. Learn more.

Left ArrowRight Arrow

41.12389, -100.76542

Hourly Observations for March 6, 2019

Temp ( °F °C ) Dew Point ( °F °C ) Humidity (%) Winds ( mph kmh ) Pressure ( in mb ) Visibility ( mi km ) Precip ( " mm )
12:53 am 00:53 Cloudy 14 -10 8 -13.3 77 77 ESE 3 6 30.37 1029 10 16 0.00 0.00
1:53 am 01:53 Cloudy 16 -8.9 10 -12.2 77 77 SSE 3 6 30.34 1027 10 16 0.00 0.00
2:53 am 02:53 Cloudy 13 -10.6 8 -13.3 81 81 SE 3 6 30.32 1027 10 16 0.00 0.00
3:53 am 03:53 Mostly Clear 12 -11.1 7 -13.9 80 80 S 3 6 30.29 1026 10 16 0.00 0.00
4:53 am 04:53 Clear 8 -13.3 4 -15.6 83 83 SSE 3 6 30.28 1026 10 16 0.00 0.00
5:53 am 05:53 Clear 7 -13.9 3 -16.1 84 84 SE 8 13 30.26 1025 10 16 0.00 0.00
6:53 am 06:53 Clear 8 -13.3 4 -15.6 83 83 ESE 10 17 30.24 1024 10 16 0.00 0.00
7:53 am 07:53 Mostly Cloudy 10 -12.2 6 -14.4 84 84 SSE 3 6 30.28 1025 10 16 0.00 0.00
8:53 am 08:53 Mostly Cloudy 14 -10 9 -12.8 80 80 SE 7 11 30.27 1025 10 16 0.00 0.00
9:53 am 09:53 Cloudy 19 -7.2 11 -11.7 71 71 SE 7 11 30.26 1025 10 16 0.00 0.00
10:53 am 10:53 Cloudy 22 -5.6 12 -11.1 66 66 SE 6 9 30.24 1024 10 16 0.00 0.00
11:53 am 11:53 Cloudy 24 -4.4 13 -10.6 62 62 SE 6 9 30.22 1024 10 16 0.00 0.00
12:53 pm 12:53 Cloudy 25 -3.9 14 -10 63 63 ESE 7 11 30.18 1022 10 16 0.00 0.00
1:53 pm 13:53 Cloudy 26 -3.3 14 -10 60 60 ESE 5 7 30.15 1021 10 16 0.00 0.00
2:53 pm 14:53 Cloudy 27 -2.8 15 -9.4 61 61 E 6 9 30.14 1021 10 16 0.00 0.00
3:53 pm 15:53 Cloudy 27 -2.8 15 -9.4 61 61 E 6 9 30.14 1021 10 16 0.00 0.00
4:53 pm 16:53 Mostly Cloudy 26 -3.3 17 -8.3 69 69 ESE 9 15 30.17 1022 10 16 0.00 0.00
5:53 pm 17:53 Cloudy 25 -3.9 16 -8.9 69 69 E 9 15 30.18 1022 10 16 0.00 0.00
6:53 pm 18:53 Cloudy 25 -3.9 17 -8.3 72 72 E 9 15 30.17 1022 10 16 0.00 0.00
7:53 pm 19:53 Cloudy 25 -3.9 17 -8.3 72 72 ESE 13 20 30.17 1022 10 16 0.00 0.00
8:09 pm 20:09 Cloudy with Light Snow 24 -4.4 18 -7.8 77 77 ESE 10 17 30.22 1023 3 4 0.00 0.03
8:19 pm 20:19 Cloudy with Light Snow 24 -4.4 19 -7.2 81 81 ESE 9 15 30.23 1024 2 2 0.01 0.25
8:26 pm 20:26 Cloudy with Light Snow 23 -5 19 -7.2 85 85 ESE 9 15 30.23 1024 1 2 0.01 0.25
8:53 pm 20:53 Mostly Cloudy with Light Snow 23 -5 20 -6.7 88 88 E 10 17 30.19 1022 1 2 0.03 0.76
9:02 pm 21:02 Mostly Cloudy with Light Snow 23 -5 20 -6.7 88 88 E 9 15 30.22 1023 1 1 0.01 0.25
9:48 pm 21:48 Mostly Cloudy with Light Snow 23 -5 19 -7 86 86 ESE 15 24 30.20 1023 1 2 0.06 1.52
9:53 pm 21:53 Mostly Cloudy with Light Snow 23 -5 20 -6.7 88 88 ESE 12 19 30.14 1021 1 2 0.07 1.78
10:08 pm 22:08 Cloudy with Light Snow 23 -5 20 -6.7 88 88 ESE 9 15 30.22 1023 1 2 0.01 0.25
10:14 pm 22:14 Cloudy with Light Snow 23 -5 20 -6.7 88 88 SE 7 11 30.23 1024 2 2 0.02 0.51
10:30 pm 22:30 Cloudy with Light Snow 23 -5 20 -6.7 88 88 SE 7 11 30.23 1024 3 4 0.02 0.51
10:38 pm 22:38 Cloudy with Light Snow 23 -5 20 -6.7 88 88 ESE 9 15 30.23 1024 3 5 0.02 0.51
10:53 pm 22:53 Cloudy with Light Snow 23 -5 20 -6.7 88 88 E 10 17 30.15 1021 2 2 0.03 0.76
11:12 pm 23:12 Cloudy with Light Snow 23 -5 20 -6.7 88 88 ESE 13 20 30.19 1022 3 4 0.00 0.03
11:19 pm 23:19 Cloudy with Light Snow 23 -5 20 -6.7 88 88 ESE 10 17 30.20 1023 3 5 0.00 0.03
11:30 pm 23:30 Cloudy with Light Snow 23 -5 19 -7.2 85 85 E 13 20 30.19 1022 2 3 0.01 0.25
11:41 pm 23:41 Cloudy with Light Snow 23 -5 20 -6.7 88 88 E 10 17 30.20 1023 3 5 0.01 0.25
11:48 pm 23:48 Cloudy with Light Snow 23 -5 19 -7 86 86 ESE 12 19 30.20 1023 5 8 0.01 0.25
11:53 pm 23:53 Cloudy 23 -5 19 -7.2 85 85 E 9 15 30.14 1021 7 11 0.01 0.25

Powered by AerisWeather